Regional Weather Roundup
Issued by NWS

Home | Current Version | Previous Version | Text Only | Print | Product List | Glossary Off
Versions: 1 2 3 4 5 6 7 8 9 10 11 12 13 14 15 16 17 18 19 20 21 22 23 24 25 26 27 28 29 30 31 32 33 34 35 36 37 38 39 40 41 42 43 44 45 46 47 48 49 50

000
ASUS43 KFSD 172210
RWRSD

WEATHER ROUNDUP FOR SOUTH DAKOTA
NATIONAL WEATHER SERVICE SIOUX FALLS SD
500 PM CDT WED SEP 17 2014

NOTE: "FAIR" INDICATES FEW OR NO CLOUDS BELOW 12,000 FEET WITH NO
SIGNIFICANT WEATHER AND/OR OBSTRUCTIONS TO VISIBILITY.


SDZ001>005-009-010-012>017-172300-
NORTHWEST AND NORTH CENTRAL SOUTH DAKOTA

CITY           SKY/WX    TMP DP  RH WIND       PRES   REMARKS
BUFFALO          N/A     75  50  41 E12       29.90R
FAITH            N/A     73  52  47 E12       29.95R
MOBRIDGE       PTSUNNY   73  47  39 E12       29.93R
$$

SDZ012>016-024>037-041>051-057-063-072>074-172300-
SOUTHWEST AND SOUTH CENTRAL SOUTH DAKOTA

CITY           SKY/WX    TMP DP  RH WIND       PRES   REMARKS
RAPID CTY ARPT SUNNY     79  49  34 SE10      29.92F
PIERRE         SUNNY     80  53  39 SE13      29.90S
CUSTER         PTSUNNY   76  35  22 SE9       30.05F
ELLSWORTH AFB  SUNNY     79  49  33 SE12      29.93S
PHILIP         MOSUNNY   79  53  40 E10       29.90S
PINE RIDGE     MOSUNNY   84  50  30 SE8       29.93S
WINNER         FAIR      80  53  39 E10       29.92S
$$

SDZ004>011-016>023-039-040-172300-
NORTHEAST SOUTH DAKOTA

CITY           SKY/WX    TMP DP  RH WIND       PRES   REMARKS
ABERDEEN       SUNNY     72  48  42 E12       29.95S
WATERTOWN      MOSUNNY   73  51  46 NE8       29.95S
SISSETON         N/A     75  52  44 NE8       29.94S
$$

SDZ017-020-022-023-036>040-048>070-172300-
SOUTHEAST SOUTH DAKOTA

CITY           SKY/WX    TMP DP  RH WIND       PRES   REMARKS
SIOUX FALLS    PTSUNNY   79  54  41 CALM      29.92S
HURON          MOSUNNY   75  47  36 N7        29.92S
CHAMBERLAIN    MOSUNNY   75  56  50 E6        29.92S
MITCHELL       MOSUNNY   78  55  44 VRB3      29.92S
YANKTON        SUNNY     79  55  44 NE8       29.90S
$$

ABBREVIATIONS USED IN REMARKS
   TC - TEMPERATURE IN CELSIUS
  WCI - WIND CHILL INDEX
   HX - HEAT INDEX
  VSB - VISIBILITY




USA.gov is the U.S. government's official web portal to all federal, state and local government web resources and services.